Flint, MI

6:39 AM EDT on August 14, 2018 (GMT -0400)
Bishop International

Weather History for KFNT - May, 2018

Change the Weather History Date:

Wednesday, May 16, 2018

  Actual Average Record
Temperature  
Mean Temperature 62 °F 57 °F  
Max Temperature 79 °F 69 °F 90 °F (1962)
Min Temperature 45 °F 45 °F 30 °F (1921)
Degree Days  
Heating Degree Days 3 9  
Month to date heating degree days 88 177  
Since 1 July heating degree days 6837 6784  
Cooling Degree Days 0 1  
Month to date cooling degree days 16 8  
Year to date cooling degree days 16 12  
Growing Degree Days 12 (Base 50)    
Moisture  
Dew Point 50 °F    
Average Humidity 63    
Maximum Humidity 86    
Minimum Humidity 40    
Precipitation  
Precipitation 0.00 in 0.09 in 2.16 in (1974)
Month to date precipitation 2.28 1.57  
Year to date precipitation 12.38 9.48  
Snow  
Snow 0.00 in 0.00 in 0.00 in ()
Month to date snowfall 0.0 0.0  
Since 1 July snowfall 85.3 47.4  
Snow Depth 0.00 in    
Sea Level Pressure  
Sea Level Pressure 30.01 in    
Wind  
Wind Speed 3 mph (SSW)    
Max Wind Speed 10 mph    
Max Gust Speed 14 mph    
Visibility 10 miles    
Events      
T = Trace of Precipitation, MM = Missing Value Source: NWS Daily Summary

Daily Weather History Graph

Daily Weather History Graph

Search for Another Location

Airport or City:

Astronomy

May. 16, 2018 Rise Set
Actual Time 6:10 AM EDT 8:52 PM EDT
Civil Twilight 5:38 AM EDT 9:25 PM EDT
Nautical Twilight 4:56 AM EDT 10:06 PM EDT
Astronomical Twilight 4:09 AM EDT 10:54 PM EDT
Moon 7:22 AM EDT (5/16) 10:19 PM EDT (5/16)
Length of Visible Light 15h 47m
Length of Day
14h 41m
New Moon, 2% of the Moon is Illuminated
May 16
New Moon
May 21
First Quarter
May 29
Full
Jun 6
Last Quarter
Jun 13
New

Hourly Weather History & Observations

Time (EDT) Temp. Dew Point Humidity Pressure Visibility Wind Dir Wind Speed Gust Speed Precip Events Conditions
12:53 AM 51.1 °F 42.1 °F 71% 30.06 in 10.0 mi East 3.5 mph - N/A   Clear
1:53 AM 51.1 °F 42.1 °F 71% 30.06 in 10.0 mi SE 3.5 mph - N/A   Clear
2:53 AM 50.0 °F 43.0 °F 77% 30.04 in 10.0 mi Calm Calm - N/A   Clear
3:53 AM 48.9 °F 43.0 °F 80% 30.04 in 10.0 mi Calm Calm - N/A   Clear
4:53 AM 48.0 °F 43.0 °F 83% 30.04 in 10.0 mi Calm Calm - N/A   Clear
5:53 AM 46.0 °F 43.0 °F 89% 30.04 in 10.0 mi Calm Calm - N/A   Clear
6:53 AM 48.0 °F 44.1 °F 86% 30.05 in 10.0 mi Calm Calm - N/A   Clear
7:53 AM 53.1 °F 46.0 °F 77% 30.06 in 10.0 mi Calm Calm - N/A   Clear
8:53 AM 57.9 °F 46.9 °F 67% 30.06 in 10.0 mi Calm Calm - N/A   Clear
9:53 AM 64.0 °F 51.1 °F 63% 30.06 in 10.0 mi Calm Calm - N/A   Clear
10:53 AM 68.0 °F 54.0 °F 61% 30.04 in 10.0 mi SSE 4.6 mph - N/A   Clear
11:53 AM 71.1 °F 55.9 °F 59% 30.03 in 10.0 mi Variable 4.6 mph - N/A   Clear
12:53 PM 73.9 °F 55.9 °F 53% 30.01 in 10.0 mi North - - N/A   Clear
1:53 PM 75.9 °F 55.0 °F 48% 30.00 in 10.0 mi North - - N/A   Clear
2:53 PM 77.0 °F 55.9 °F 48% 29.99 in 10.0 mi Variable 6.9 mph - N/A   Scattered Clouds
3:53 PM 78.1 °F 54.0 °F 43% 29.97 in 10.0 mi Variable 3.5 mph - N/A   Partly Cloudy
4:53 PM 77.0 °F 53.1 °F 43% 29.96 in 10.0 mi Variable 3.5 mph - N/A   Clear
5:53 PM 78.1 °F 54.0 °F 43% 29.96 in 10.0 mi West 8.1 mph - N/A   Clear
6:53 PM 78.1 °F 53.1 °F 42% 29.95 in 6.0 mi Calm Calm - N/A   Haze
7:53 PM 77.0 °F 52.0 °F 42% 29.95 in 10.0 mi NW 3.5 mph - N/A   Clear
8:53 PM 71.1 °F 53.1 °F 53% 29.95 in 10.0 mi NW 3.5 mph - N/A   Clear
9:53 PM 64.0 °F 54.0 °F 70% 29.97 in 10.0 mi Calm Calm - N/A   Clear
10:53 PM 66.0 °F 55.9 °F 70% 29.99 in 10.0 mi South 8.1 mph - N/A   Clear
11:53 PM 64.0 °F 55.9 °F 75% 29.98 in 10.0 mi South 8.1 mph - N/A   Clear